World > North America > United States > Washington

Seattle, Washington Regional Weather

Lat: 47.61N, Lon: 122.33W
Wx Zone: WAZ558
Feedback

Seattle, WA Regional Weather

Expires:201908250300;;162360
ASUS46 KSEW 250210
RWRWA 

WASHINGTON REGIONAL WEATHER ROUNDUP
NATIONAL WEATHER SERVICE SEATTLE WA
700 PM PDT SAT AUG 24 2019

NOTE:"FAIR" INDICATES FEW OR NO CLOUDS BELOW 12,000 FEET WITH NO 
SIGNIFICANT WEATHER AND/OR OBSTRUCTIONS TO VISIBILITY.


WAZ507-509-555>559-250300-
SEATTLE, TACOMA, EVERETT, AND VICINITY
  
CITY           SKY/WX    TMP DP  RH WIND       PRES   REMARKS
EVERETT        CLOUDY    63  54  72 N9        30.03R                  
BOEING FIELD   PTCLDY    71  52  50 VRB6      29.99S                  
RENTON         PTCLDY    71  56  58 N8        29.99R                  
SEATAC AIRPORT PTCLDY    72  54  53 N9        30.00S                  
JBLM-MCCHORD   SUNNY     73  61  66 W12       30.00R                  
PUYALLUP       FAIR      73  57  56 W6        30.00S                  
BREMERTON      CLOUDY    68  54  60 E9        30.01R                  
JBLM-FT LEWIS  PTSUNNY   72  62  69 SW9       29.99S                  
TACOMA NARROWS SUNNY     69  55  60 SW6       30.00R                  
$$
 

SKY/WX - Weather  TMP - Temperature  DP - Dew Point  RH - Relative Humidity
WIND - Wind Direction/Speed PRES - Barometric Pressure VSB - Visibility
WCI - Wind Chill Index E13G22 Wind - East Wind 13 mph/Gusts of 22 mph